Regional Weather Roundup
Issued by NWS

Home | Current Version | Previous Version | Graphics & Text | Print | Product List | Glossary On
Versions: 1 2 3 4 5 6 7 8 9 10 11 12 13 14 15 16 17 18 19 20 21 22 23 24 25 26 27 28 29 30 31 32 33 34 35 36 37 38 39 40 41 42 43 44 45 46 47 48 49 50
000
ASUS43 KFSD 211902
RWRSD

WEATHER ROUNDUP FOR SOUTH DAKOTA
NATIONAL WEATHER SERVICE SIOUX FALLS SD
100 PM CST TUE FEB 21 2017

NOTE: "FAIR" INDICATES FEW OR NO CLOUDS BELOW 12,000 FEET WITH NO
SIGNIFICANT WEATHER AND/OR OBSTRUCTIONS TO VISIBILITY.


SDZ001>005-009-010-012>017-212000-
NORTHWEST AND NORTH CENTRAL SOUTH DAKOTA

CITY           SKY/WX    TMP DP  RH WIND       PRES   REMARKS
BUFFALO          N/A     63  30  28 VRB3      29.64F
FAITH            N/A     63  36  36 SW8       29.70F
MOBRIDGE       SUNNY     57  36  45 CALM      29.68F
$$

SDZ012>016-024>037-041>051-057-063-072>074-212000-
SOUTHWEST AND SOUTH CENTRAL SOUTH DAKOTA

CITY           SKY/WX    TMP DP  RH WIND       PRES   REMARKS
RAPID CTY ARPT SUNNY     68  32  26 W33G41    29.72F
PIERRE         SUNNY     66  33  29 VRB5      29.71F
CUSTER         MOSUNNY   56  29  35 W16G35    29.85F
PHILIP         SUNNY     72  34  24 W17       29.71F
PINE RIDGE     SUNNY     69  33  26 W22G47    29.79F
SPEARFISH      FAIR      64  32  29 W24G36    29.73F
WINNER         FAIR      73  35  25 W23G36    29.73F
$$

SDZ004>011-016>023-039-040-212000-
NORTHEAST SOUTH DAKOTA

CITY           SKY/WX    TMP DP  RH WIND       PRES   REMARKS
ABERDEEN       MOSUNNY   57  36  45 W6        29.70F
WATERTOWN      PTSUNNY   51  39  63 SW8       29.72F
BROOKINGS      MOSUNNY   56  39  53 SW8       29.73F
SISSETON         N/A     55  41  59 W12       29.67F
$$

SDZ017-020-022-023-036>040-048>070-212000-
SOUTHEAST SOUTH DAKOTA

CITY           SKY/WX    TMP DP  RH WIND       PRES   REMARKS
SIOUX FALLS    MOSUNNY   61  40  45 S13G20    29.75F
HURON          SUNNY     64  38  38 VRB6      29.71F
CHAMBERLAIN    SUNNY     67  37  32 CALM      29.73
MITCHELL       MOSUNNY   65  35  33 SW10      29.74F
YANKTON        SUNNY     70  30  23 S14G25    29.75F
$$

ABBREVIATIONS USED IN REMARKS
   TC - TEMPERATURE IN CELSIUS
  WCI - WIND CHILL INDEX
   HX - HEAT INDEX
  VSB - VISIBILITY





USA.gov is the U.S. government's official web portal to all federal, state and local government web resources and services.